The Dalles, WA

6:19 PM PDT on August 23, 2017 (GMT -0700)
Columbia Gorge Regional-The Dalles

Weather History for KDLS - October, 2011

Change the Weather History Date:

Friday, October 28, 2011

  Actual Average Record
Temperature  
Mean Temperature 46 °F -  
Max Temperature 57 °F 58 °F 75 °F (2003)
Min Temperature 37 °F 38 °F 23 °F (1948)
Degree Days  
Heating Degree Days 19    
Moisture  
Dew Point 36 °F    
Average Humidity 72    
Maximum Humidity 86    
Minimum Humidity 42    
Precipitation  
Precipitation 0.04 in - - ()
Sea Level Pressure  
Sea Level Pressure 30.12 in    
Wind  
Wind Speed 2 mph (South)    
Max Wind Speed 12 mph    
Max Gust Speed 17 mph    
Visibility 10 miles    
Events Rain    
Averages and records for this station are not official NWS values.
T = Trace of Precipitation, MM = Missing Value Source: NWS Daily Summary

Daily Weather History Graph

Daily Weather History Graph

Search for Another Location

Airport or City:

Trip Planner

Search our weather history database for the weather conditions in past years. The results will help you decide how hot, cold, wet, or windy it might be!

Date:

Astronomy

Oct. 28, 2011 Rise Set
Actual Time 7:38 AM PDT 5:57 PM PDT
Civil Twilight 7:07 AM PDT 6:28 PM PDT
Nautical Twilight 6:33 AM PDT 7:03 PM PDT
Astronomical Twilight 5:58 AM PDT 7:37 PM PDT
Moon 10:09 AM PDT (10/28) 7:16 PM PDT (10/28)
Length of Visible Light 11h 20m
Length of Day
10h 19m
Waxing Crescent, 6% of the Moon is Illuminated
Oct 28
Waxing Crescent
Nov 2
First Quarter
Nov 10
Full
Nov 18
Last Quarter
Nov 24
New

Hourly Weather History & Observations

Time (PDT) Temp. Windchill Dew Point Humidity Pressure Visibility Wind Dir Wind Speed Gust Speed Precip Events Conditions
12:53 AM 37.9 °F 33.5 °F 30.0 °F 73% 30.25 in 10.0 mi ESE 5.8 mph - N/A   Clear
1:53 AM 37.9 °F 35.5 °F 30.0 °F 73% 30.25 in 10.0 mi ESE 3.5 mph - N/A   Clear
2:53 AM 37.0 °F - 30.9 °F 79% 30.23 in 10.0 mi Calm Calm - N/A   Clear
3:53 AM 37.0 °F - 30.0 °F 76% 30.21 in 10.0 mi Calm Calm - N/A   Clear
4:53 AM 37.9 °F - 30.9 °F 76% 30.21 in 10.0 mi Calm Calm - N/A   Clear
5:53 AM 37.0 °F - 30.9 °F 79% 30.20 in 10.0 mi Calm Calm - N/A   Clear
6:53 AM 37.0 °F - 32.0 °F 82% 30.18 in 10.0 mi Calm Calm - N/A   Clear
7:53 AM 37.9 °F - 32.0 °F 79% 30.19 in 10.0 mi Calm Calm - N/A   Clear
8:53 AM 39.9 °F - 34.0 °F 79% 30.19 in 10.0 mi Calm Calm - N/A   Clear
9:53 AM 42.1 °F - 35.1 °F 76% 30.17 in 10.0 mi Calm Calm - N/A   Clear
10:53 AM 44.1 °F - 35.1 °F 71% 30.16 in 10.0 mi Calm Calm - N/A   Partly Cloudy
11:53 AM 46.0 °F - 35.1 °F 66% 30.13 in 10.0 mi Calm Calm - N/A   Clear
12:53 PM 48.0 °F - 34.0 °F 58% 30.10 in 10.0 mi Calm Calm - N/A   Clear
1:53 PM 51.1 °F - 35.1 °F 54% 30.06 in 10.0 mi South 4.6 mph - N/A   Clear
2:53 PM 54.0 °F - 32.0 °F 43% 30.04 in 10.0 mi Calm Calm - N/A   Clear
3:53 PM 55.9 °F - 33.1 °F 42% 30.02 in 10.0 mi Calm Calm - N/A   Scattered Clouds
5:53 PM 51.1 °F - 45.0 °F 80% 29.99 in 10.0 mi ESE 4.6 mph - 0.04 in Rain Light Rain
6:53 PM 50.0 °F - 45.0 °F 83% 30.01 in 10.0 mi West 4.6 mph - 0.00 in   Mostly Cloudy
7:53 PM 51.1 °F - 45.0 °F 80% 30.00 in 10.0 mi Calm Calm - 0.00 in   Scattered Clouds
8:53 PM 48.9 °F - 43.0 °F 80% 30.00 in 10.0 mi SSW 3.5 mph - N/A   Partly Cloudy
9:53 PM 48.9 °F - 45.0 °F 86% 30.02 in 10.0 mi Calm Calm - N/A   Mostly Cloudy
11:53 PM 57.0 °F - 46.9 °F 69% 30.04 in 10.0 mi WNW 11.5 mph 17.3 mph N/A   Clear